Simultaneous Nadir Overpasses (SNOs) Predictions

Prediction of SNOs between AQUA and NOAA-19 Satellite Orbit:

Table of predicted SNOs for the next 14.0 days since TLE Epoch: 3/22/2013
Index Date (AQUA) Time (AQUA) Lat,Lon (AQUA) SZA (AQUA ) Date (NOAA-19) Time (NOAA-19) Lat,Lon (NOAA-19) SZA (NOAA-19 ) Distance(km) Time Diff (sec)
1 03/23/2013 03:00:52 46.02, -12.67 125.77 03/23/2013 02:59:50 45.82, -11.61 125.56 85.37 62
2 03/23/2013 03:26:34 -46.65, -36.44 133.06 03/23/2013 03:26:23 -46.55, -36.93 133.27 39.23 11
3 03/25/2013 07:45:10 46.04, -83.74 124.90 03/25/2013 07:44:15 45.82, -82.70 124.71 83.88 55
4 03/25/2013 08:10:47 -46.34,-107.39 134.14 03/25/2013 08:10:42 -46.22,-107.89 134.36 40.27 5
5 03/27/2013 12:18:13 81.45, -87.36 86.38 03/27/2013 12:17:00 80.80, -86.04 86.16 76.19 73
6 03/27/2013 12:55:01 -46.10,-178.37 135.14 03/27/2013 12:55:03 -46.02,-178.90 135.33 41.45 2
7 03/29/2013 16:59:07 77.21, -90.13 74.06 03/29/2013 16:57:54 76.83, -92.03 73.85 63.80 73
8 03/29/2013 17:39:19 -46.11, 110.56 135.92 03/29/2013 17:39:27 -46.00, 110.02 136.14 42.91 8
9 03/31/2013 21:39:57 66.22,-140.05 61.67 03/31/2013 21:38:44 66.06,-141.04 61.48 47.84 73
10 03/31/2013 22:23:36 -46.08, 39.50 136.73 03/31/2013 22:23:51 -45.99, 38.94 136.94 44.45 15
11 04/03/2013 02:20:43 53.97, 157.41 49.42 04/03/2013 02:19:30 53.91, 156.98 49.25 28.91 73
12 04/03/2013 03:07:53 -46.07, -31.56 137.52 04/03/2013 03:08:15 -45.99, -32.15 137.72 46.11 22
13 04/05/2013 07:03:54 50.08, 88.12 45.19 04/05/2013 07:02:46 50.03, 87.80 45.02 23.71 68




NCC Satellite Simultaneous Nadir Overpasses (SNOs) Prediction Service
